Regional Weather Roundup
Issued by NWS

Home | Current Version | Previous Version | Text Only | Print | Product List | Glossary On
Versions: 1 2 3 4 5 6 7 8 9 10 11 12 13 14 15 16 17 18 19 20 21 22 23 24 25 26 27 28 29 30 31 32 33 34 35 36 37 38 39 40 41 42 43 44 45 46 47 48 49 50
000
ASUS43 KLSX 140707
RWRMO

WEATHER SUMMARY FOR MISSOURI
NATIONAL WEATHER SERVICE SPRINGFIELD MO
200 AM CDT MON JUL 14 2014

NOTE: "FAIR" INDICATES FEW OR NO CLOUDS BELOW 12,000 FEET WITH NO
       SIGNIFICANT WEATHER AND/OR OBSTRUCTIONS TO VISIBILITY.
       CURRENT SKY AND/OR WEATHER CONDITIONS ARE NOT AVAILABLE FOR
       CHILLICOTHE AND FARMINGTON.

MOZ001>031-035>038-043-044-053-054-140800-
...NORTHERN AND WESTERN MISSOURI...

CITY           SKY/WX    TMP DP  RH WIND       PRES   REMARKS
KANSAS CTY INT CLEAR     73  67  81 SW5       29.98F
KANSAS C DTWN  CLEAR     75  70  84 SW3       29.97F
LEE`S SUMMIT   CLEAR     71  68  90 SW3       29.99S
ST JOSEPH      CLEAR     72  71  97 CALM      29.97F
CHILLICOTHE      N/A     71  69  93 CALM      29.97F
KIRKSVILLE     CLEAR     67  66  97 W3        29.95F FOG

$$
MOZ066>068-077>081-088>096-101>105-140800-
...SOUTHWEST MISSOURI...

CITY           SKY/WX    TMP DP  RH WIND       PRES   REMARKS
SPRINGFIELD    LGT RAIN  75  72  90 SW9       30.00R
JOPLIN         CLOUDY    76  71  85 N6        29.98F

$$
MOZ032>034-039>042-045>050-055>058-069>072-140800-
...CENTRAL MISSOURI...

CITY           SKY/WX    TMP DP  RH WIND       PRES   REMARKS
COLUMBIA       FOG       71  71 100 W3        29.97F VSB 1/4
JEFFERSON CITY CLOUDY    73  72  96 CALM      29.96S
ROLLA          MOCLDY    69  68  96 SW7       29.97R FOG
SEDALIA        CLEAR     71  70  96 W3        29.98S
WHITEMAN AFB   PTCLDY    70  66  88 SW2       29.97S FOG
OSAGE BEACH    MOCLDY    72  68  88 CALM      29.98R

$$
MOZ051-052-059>065-140800-
...EAST CENTRAL MISSOURI...

CITY           SKY/WX    TMP DP  RH WIND       PRES   REMARKS
ST LOUIS INTL  CLOUDY    77  74  90 W3        29.94F
SPIRIT OF STL  CLOUDY    74  71  91 CALM      29.93S
ST CHARLES     CLOUDY    75  73  93 CALM      29.92S

$$
MOZ072>076-082>087-097>100-106>115-140800-
...SOUTH CENTRAL AND SOUTHEAST MISSOURI...

CITY           SKY/WX    TMP DP  RH WIND       PRES   REMARKS
CAPE GIRARDEAU CLOUDY    80  70  71 W23G35    29.95R
FARMINGTON     CLOUDY    70  68  94 S5        29.99S
POPLAR BLUFF   CLOUDY    81  72  74 SW8       29.92F
WEST PLAINS    MOCLDY    72  69  90 CALM      29.99S

$$


USA.gov is the U.S. government's official web portal to all federal, state and local government web resources and services.